Stations météo

réclame
Mon MeteoGroup
Kloevsjoehoejden, Suède (2325): Température de l'air & dewpoint: 01.08.2020 17:00:00 - 07.08.2020 17:00:00 (CEST)Kloevsjoehoejden, Suède (2325): Vitesse du vent & gusts: 01.08.2020 17:00:00 - 07.08.2020 17:00:00 (CEST)Kloevsjoehoejden, Suède (2325): Direction du vent: 01.08.2020 17:00:00 - 07.08.2020 17:00:00 (CEST)Kloevsjoehoejden, Suède (2325): reduced air pressure: 01.08.2020 17:00:00 - 07.08.2020 17:00:00 (CEST)Kloevsjoehoejden, Suède (2325): visibility: 01.08.2020 17:00:00 - 07.08.2020 17:00:00 (CEST)Kloevsjoehoejden, Suède (2325): Quantités de précipitations: 01.08.2020 17:00:00 - 07.08.2020 17:00:00 (CEST)
Date & Time tt [°C] td [°C] ff [km/h] ff [knt] fx [km/h] fx [knt] dd ppp [hPa] vv [km] rr [mm]
07.08.2020 17:00:00 20,2 11,5 18 10 47 25 SW 1020,6 40 0,0
07.08.2020 16:00:00 20,9 11,8 21 11 41 22 SSW 1020,4 50 0,0
07.08.2020 15:00:00 21,9 11,3 17 9 39 21 SSW 1020,4 50 0,0
07.08.2020 14:00:00 21,9 11,0 22 12 40 22 SSW 1020,4 43 0,0
07.08.2020 13:00:00 21,1 11,4 21 12 - - S 1021,1 43 0,0
07.08.2020 12:00:00 20,6 12,3 16 8 36 19 S 1021,6 41 0,0
07.08.2020 11:00:00 19,8 11,3 16 9 28 15 SW 1022,0 43 0,0
07.08.2020 10:00:00 18,8 11,8 10 5 25 13 SSW 1022,5 47 0,0
07.08.2020 09:00:00 17,8 12,0 11 6 19 10 SSW 1022,7 44 0,0
07.08.2020 08:00:00 16,7 13,4 7 4 17 9 SW 1023,2 50 0,0
07.08.2020 07:00:00 14,7 13,2 12 7 20 11 WSW 1023,7 46 0,0
07.08.2020 06:00:00 14,1 13,0 13 7 26 14 W 1023,8 50 0,0
07.08.2020 05:00:00 13,5 12,7 15 8 26 14 W 1023,8 50 0,0
07.08.2020 04:00:00 13,8 12,7 17 9 26 14 W 1023,6 50 0,0
07.08.2020 03:00:00 14,3 12,9 16 8 21 12 W 1023,2 50 0,0
07.08.2020 02:00:00 14,5 12,7 13 7 19 11 WSW 1023,0 50 0,0
07.08.2020 01:00:00 14,3 12,5 11 6 16 9 SW 1023,0 50 0,0
07.08.2020 00:00:00 14,4 12,4 9 5 14 8 WSW 1022,5 50 0,0
06.08.2020 23:00:00 15,4 12,0 10 5 - - WSW 1021,7 50 0,0
06.08.2020 22:00:00 15,8 11,8 10 5 14 7 W 1021,1 50 0,0
06.08.2020 21:00:00 16,7 12,0 9 5 12 6 WSW 1020,2 50 0,0
06.08.2020 20:00:00 18,7 12,0 8 4 18 10 SW 1019,1 50 0,0
06.08.2020 19:00:00 19,9 11,1 9 5 17 9 SW 1018,2 50 0,0
06.08.2020 18:00:00 19,7 12,2 9 5 25 13 SW 1018,1 50 0,0
06.08.2020 17:00:00 18,1 12,1 14 7 26 14 SW 1018,3 50 0,0
06.08.2020 16:00:00 18,0 12,4 12 7 24 13 SSW 1018,1 49 0,0
06.08.2020 15:00:00 17,2 11,9 12 7 22 12 SSW 1017,9 50 0,0
06.08.2020 14:00:00 18,2 12,0 9 5 32 18 WSW 1017,0 48 0,0
06.08.2020 13:00:00 16,9 12,0 11 6 23 13 WSW 1016,8 50 0,0
06.08.2020 12:00:00 16,3 11,9 14 8 25 14 WSW 1016,6 46 0,0
06.08.2020 11:00:00 16,4 12,4 12 7 20 11 WSW 1015,8 50 0,0
06.08.2020 10:00:00 15,3 11,9 10 6 17 9 W 1015,4 50 0,0
06.08.2020 09:00:00 14,3 11,3 9 5 21 12 W 1015,0 50 0,0
06.08.2020 08:00:00 12,9 11,3 14 8 24 13 W 1014,9 50 0,0
06.08.2020 07:00:00 11,8 10,7 14 7 27 15 W 1014,4 50 0,0
06.08.2020 06:00:00 11,1 10,5 15 8 23 13 WSW 1013,9 50 0,0
06.08.2020 05:00:00 11,0 10,4 13 7 23 12 WSW 1013,3 50 0,0
06.08.2020 04:00:00 11,0 10,2 15 8 30 16 W 1012,5 50 0,0
06.08.2020 03:00:00 10,7 10,4 18 10 - - W 1012,1 50 0,0
06.08.2020 02:00:00 10,6 10,3 16 9 29 16 WSW 1011,5 50 0,0
06.08.2020 01:00:00 10,5 10,3 17 9 31 17 WSW 1011,1 50 0,0
06.08.2020 00:00:00 10,4 10,2 18 10 28 15 WSW 1010,6 50 0,0
05.08.2020 23:00:00 10,1 10,1 10 6 24 13 SW 1010,5 50 0,0
05.08.2020 22:00:00 9,8 9,8 14 7 30 16 SSW 1009,8 0,7 0,0
05.08.2020 21:00:00 9,7 9,7 16 9 36 19 SSW 1009,3 17 0,0
05.08.2020 20:00:00 9,7 9,6 20 11 40 22 SSW 1008,6 26 0,0
05.08.2020 19:00:00 9,6 9,3 21 11 49 26 SSW 1008,3 50 0,2
05.08.2020 18:00:00 9,5 9,0 21 11 45 25 SSW 1008,1 15 0,2
05.08.2020 17:00:00 9,7 8,6 22 12 44 24 S 1008,1 14 0,1
05.08.2020 16:00:00 9,9 8,2 18 10 39 21 S 1008,4 50 0,0
05.08.2020 15:00:00 10,0 8,1 18 10 38 21 S 1008,6 20 0,3
05.08.2020 14:00:00 10,3 7,4 21 11 49 26 SSW 1008,8 17 0,0
05.08.2020 13:00:00 12,9 5,1 20 11 46 25 SSW 1007,5 48 0,0
05.08.2020 12:00:00 14,4 5,2 23 13 43 23 S 1006,8 50 0,0
05.08.2020 11:00:00 12,9 6,9 21 12 35 19 SSW 1007,3 49 0,0
05.08.2020 10:00:00 12,3 6,6 18 10 31 17 SSW 1007,6 50 0,0
05.08.2020 09:00:00 12,3 7,4 14 8 25 14 S 1007,7 44 0,0
05.08.2020 08:00:00 11,0 6,5 11 6 26 14 SSW 1008,2 50 0,0
05.08.2020 07:00:00 9,7 5,7 6 3 13 7 S 1008,8 50 0,0
05.08.2020 06:00:00 9,6 5,2 8 5 15 8 WSW 1008,9 50 0,0
05.08.2020 05:00:00 8,0 4,8 11 6 18 10 WSW 1009,4 50 0,0
05.08.2020 04:00:00 8,1 5,0 11 6 19 11 WSW 1009,5 50 0,0
05.08.2020 03:00:00 8,2 5,1 12 6 20 11 WSW 1009,6 50 0,0
05.08.2020 02:00:00 8,1 5,4 10 6 16 9 SW 1009,7 50 0,0
05.08.2020 01:00:00 8,2 5,8 10 5 18 10 SSW 1009,9 50 0,2
05.08.2020 00:00:00 8,3 6,4 11 6 19 10 SSW 1010,2 50 0,0
04.08.2020 23:00:00 7,9 6,0 10 5 16 9 SSW 1010,3 50 0,0
04.08.2020 22:00:00 8,4 7,5 10 5 15 8 SSW 1010,0 50 0,0
04.08.2020 21:00:00 8,8 7,9 8 5 16 9 SE 1009,7 50 0,0
04.08.2020 20:00:00 9,3 8,4 9 5 16 9 ESE 1009,3 50 1,8
04.08.2020 19:00:00 9,6 7,2 11 6 22 12 N 1009,5 47 0,1
04.08.2020 18:00:00 11,5 6,0 10 6 19 10 ESE 1008,2 50 0,0
04.08.2020 17:00:00 12,3 5,5 9 5 14 8 NNE 1007,8 45 0,0
04.08.2020 16:00:00 12,6 5,5 9 5 27 15 WNW 1007,9 45 0,0
04.08.2020 15:00:00 13,1 6,4 6 3 18 10 WSW 1007,5 50 0,1
04.08.2020 14:00:00 11,8 5,4 8 5 19 10 NNW 1008,0 50 0,0
04.08.2020 13:00:00 12,5 5,4 9 5 - - NW 1007,7 42 0,0
04.08.2020 12:00:00 11,5 5,8 13 7 24 13 WNW 1008,1 50 0,0
04.08.2020 11:00:00 11,3 5,6 14 7 32 18 WNW 1008,0 50 0,0
04.08.2020 10:00:00 11,1 5,8 13 7 29 16 WNW 1007,7 50 0,0
04.08.2020 09:00:00 9,7 6,0 19 11 29 16 WNW 1007,9 50 0,0
04.08.2020 08:00:00 8,8 5,2 16 9 26 14 W 1008,0 50 0,0
04.08.2020 07:00:00 6,5 4,5 14 8 28 15 W 1008,5 50 0,0
04.08.2020 06:00:00 6,6 4,6 16 9 29 16 WNW 1008,5 50 0,0
04.08.2020 05:00:00 5,4 4,4 11 6 26 14 WNW 1009,0 50 0,0
04.08.2020 04:00:00 6,1 4,7 14 8 24 13 WNW 1008,5 50 0,0
04.08.2020 03:00:00 6,1 4,4 13 7 30 16 NW 1008,5 50 0,0
04.08.2020 02:00:00 6,4 4,6 16 8 33 18 NW 1008,1 50 0,0
04.08.2020 01:00:00 6,5 5,0 16 9 30 16 NW 1007,9 50 0,0
04.08.2020 00:00:00 6,5 5,3 16 8 32 17 NW 1007,4 50 0,0
03.08.2020 23:00:00 7,0 5,6 22 12 39 21 NW 1006,9 44 0,0
03.08.2020 22:00:00 7,2 5,8 20 11 42 23 NW 1006,4 50 0,0
03.08.2020 21:00:00 7,5 6,1 22 12 39 21 NW 1005,8 50 0,0
03.08.2020 20:00:00 8,6 7,4 17 9 32 18 NW 1005,2 50 0,1
03.08.2020 19:00:00 9,2 7,8 19 11 34 18 NNW 1004,4 50 0,0
03.08.2020 18:00:00 10,0 9,7 16 9 29 16 NNW 1003,4 13 7,2
03.08.2020 17:00:00 9,8 9,8 10 5 31 17 NNW 1003,5 10 3,5
03.08.2020 16:00:00 9,8 9,5 18 10 37 20 N 1002,3 16 0,7
03.08.2020 15:00:00 12,7 10,4 14 8 31 17 N 1001,1 50 0,0
03.08.2020 14:00:00 15,4 8,9 18 10 40 22 W 999,8 50 0,0
03.08.2020 13:00:00 16,9 9,8 12 6 26 14 SW 999,3 46 0,0
03.08.2020 12:00:00 14,3 10,1 12 6 20 11 WSW 1000,2 50 0,0
03.08.2020 11:00:00 13,7 10,3 13 7 23 13 W 1000,2 50 0,0
03.08.2020 10:00:00 14,0 11,0 12 6 21 12 SW 1000,0 45 0,0
03.08.2020 09:00:00 12,6 11,0 9 5 17 9 WSW 1000,5 49 0,0
03.08.2020 08:00:00 11,9 11,7 7 4 18 10 SW 1000,7 32 0,0
03.08.2020 07:00:00 11,3 11,3 9 5 21 11 SSW 1000,9 1,1 0,0
03.08.2020 06:00:00 11,6 11,6 11 6 21 12 SW 1001,0 0,1 0,0
03.08.2020 05:00:00 12,0 12,0 9 5 18 10 S 1001,3 0,1 0,0
03.08.2020 04:00:00 12,2 12,2 8 5 14 7 SSW 1001,5 0,1 0,0
03.08.2020 03:00:00 11,8 11,6 6 4 21 11 SSE 1002,0 0,2 1,5
03.08.2020 02:00:00 13,0 11,7 10 6 18 10 SSW 1002,1 50 0,0
03.08.2020 01:00:00 13,5 11,6 10 5 17 9 SSW 1002,3 50 0,0
03.08.2020 00:00:00 13,3 11,7 10 6 26 14 SW 1002,7 50 0,0
02.08.2020 23:00:00 13,7 10,1 13 7 24 13 SW 1002,7 50 0,0
02.08.2020 22:00:00 13,7 10,3 11 6 20 11 SSW 1003,1 50 0,0
02.08.2020 21:00:00 14,3 9,3 11 6 19 10 SW 1003,1 50 0,0
02.08.2020 20:00:00 14,2 9,6 9 5 24 13 WSW 1003,4 50 0,1
02.08.2020 19:00:00 15,9 8,6 12 7 19 10 WSW 1003,2 50 0,0
02.08.2020 18:00:00 16,4 8,4 13 7 27 14 SW 1003,3 50 0,2
02.08.2020 17:00:00 18,1 8,1 14 7 - - SW 1003,0 50 0,0
02.08.2020 16:00:00 20,0 9,6 14 8 29 16 SSW 1002,7 50 0,0
02.08.2020 15:00:00 21,5 8,7 9 5 22 12 SW 1002,6 50 0,0
02.08.2020 14:00:00 19,7 10,1 10 5 22 12 SSW 1003,5 45 0,0
02.08.2020 13:00:00 18,5 10,1 11 6 27 14 SW 1004,2 50 0,0
02.08.2020 12:00:00 18,0 9,4 13 7 27 15 WSW 1004,5 47 0,0
02.08.2020 11:00:00 17,4 9,8 14 8 24 13 WSW 1005,1 44 0,0
02.08.2020 10:00:00 17,0 9,9 11 6 23 12 WSW 1005,4 48 0,0
02.08.2020 09:00:00 15,8 9,9 13 7 26 14 WSW 1006,0 41 0,0
02.08.2020 08:00:00 15,1 9,9 14 8 27 15 SW 1006,6 50 0,0
02.08.2020 07:00:00 14,0 9,2 16 8 24 13 WSW 1007,5 50 0,0
02.08.2020 06:00:00 12,7 8,6 10 5 18 10 WSW 1008,5 50 0,0
02.08.2020 05:00:00 12,0 8,7 13 7 20 11 WSW 1009,4 50 0,0
02.08.2020 04:00:00 12,5 9,5 16 9 27 15 WSW 1009,8 50 0,0
02.08.2020 03:00:00 13,3 9,5 19 10 34 18 WSW 1010,1 50 0,0
02.08.2020 02:00:00 14,0 9,6 20 11 31 17 WSW 1010,3 50 0,0
02.08.2020 01:00:00 14,2 9,2 17 9 26 14 WSW 1010,9 50 0,0
02.08.2020 00:00:00 15,0 9,1 17 9 27 15 WSW 1010,9 50 0,0
01.08.2020 23:00:00 15,5 9,4 12 7 21 11 SW 1011,3 50 0,0
01.08.2020 22:00:00 16,6 9,3 12 6 26 14 SW 1011,3 50 0,0
01.08.2020 21:00:00 17,7 9,3 13 7 25 14 SW 1011,1 50 0,0
01.08.2020 20:00:00 18,5 9,6 10 5 23 12 SSW 1011,3 50 0,0
01.08.2020 19:00:00 19,5 9,1 12 6 26 14 S 1011,5 50 0,0
01.08.2020 18:00:00 20,0 9,6 12 6 28 15 SSW 1011,9 50 0,0
01.08.2020 17:00:00 20,4 9,6 13 7 27 15 S 1012,3 50 0,0

tt = Température de l'air
td = dewpoint
ff = Vitesse du vent
fx = gusts
dd = Direction du vent
ppp = reduced air pressure
vv = visibility
rr = Quantités de précipitations

stations d'obs. à proximité